Theta_e
318 334 345 345 347 348 350 350 350 350 350 350 351 349 351 350 351 351 350 349 349 347 347 349 346 350 342 345 342 340 337 335
307 310 329 347 348 348 348 350 349 349 350 349 349 346 347 347 347 348 346 346 344 343 345 343 341 341 336 336 335 335 335 336
307 308 313 340 347 348 347 349 348 350 348 348 348 345 346 346 347 346 345 343 343 342 342 341 339 337 334 332 333 331 332 333
303 307 309 318 346 346 347 348 349 349 347 347 347 346 346 346 346 344 342 341 341 340 339 339 337 335 334 333 333 332 332 335
303 303 309 322 341 346 344 345 346 346 344 346 347 347 345 344 344 343 341 339 340 340 339 337 337 335 334 332 333 335 334 339
302 304 305 309 321 339 344 346 345 345 343 344 343 344 342 341 342 340 340 340 339 339 339 338 337 335 334 333 332 334 337 337
301 303 303 306 312 320 340 343 341 343 340 338 336 339 339 339 340 338 338 340 340 339 339 339 336 334 335 334 338 338 336 333
301 303 304 304 309 323 340 341 339 340 338 338 336 335 335 337 338 337 335 338 342 339 337 337 336 338 339 340 337 335 333 331
301 303 304 305 309 331 337 338 337 337 337 336 335 333 333 334 336 338 332 336 340 341 338 335 339 341 340 340 336 331 326 327
303 301 301 303 308 329 337 339 338 338 338 338 338 336 336 338 337 338 334 333 338 341 340 339 341 339 337 336 333 329 324 321
302 302 300 300 308 326 338 340 339 338 339 340 341 341 340 339 339 338 337 334 338 341 340 343 340 340 338 336 332 328 322 322
301 301 299 299 300 321 340 341 340 339 340 339 338 339 335 338 341 340 339 337 339 342 343 342 341 338 335 333 330 326 323 322
298 299 299 300 300 311 337 341 341 340 339 339 336 337 339 339 339 340 339 339 340 344 343 342 338 335 331 329 327 325 324 322
302 304 304 303 300 301 318 341 341 340 339 339 335 336 338 339 339 338 338 338 340 343 343 340 333 329 328 326 324 322 319 317
301 303 304 304 303 301 306 333 339 340 339 338 337 335 337 340 339 338 337 337 340 341 340 334 330 328 326 323 319 317 314 312
301 303 303 303 304 306 304 316 336 338 338 338 338 335 333 340 340 339 338 339 341 341 337 332 329 327 323 319 317 314 312 310
301 303 303 304 305 305 304 308 327 337 338 338 338 337 336 339 339 339 339 341 340 338 333 330 326 323 319 317 313 310 310 309
301 303 305 305 306 306 306 306 312 334 338 338 338 340 339 340 338 337 338 340 338 334 330 327 323 320 318 315 311 311 309 306
301 302 305 306 307 307 306 306 317 328 337 337 338 342 340 339 338 337 339 337 335 332 328 324 319 318 316 312 311 309 304 300
300 301 305 306 307 307 306 306 312 329 336 337 337 339 338 339 338 339 339 335 333 329 325 321 319 315 313 312 310 305 301 297
Wind_Speed
5 6 6 5 5 7 8 9 14 15 11 8 5 5 6 7 10 11 10 7 4 3 3 3 3 7 3 4 3 2 2 2
6 5 7 10 10 10 7 9 12 13 11 11 10 7 8 7 10 13 8 6 4 5 4 4 4 3 4 4 2 3 4 4
6 8 7 9 12 14 12 10 10 12 14 12 12 11 10 11 10 11 7 6 6 5 4 4 3 3 3 4 3 3 4 4
7 6 8 7 11 12 11 13 10 10 9 14 12 12 13 12 10 9 10 7 6 5 4 4 4 4 3 3 3 3 2 2
11 11 11 9 7 13 15 16 14 11 7 7 8 8 10 11 10 11 11 8 7 7 5 4 4 4 4 2 3 2 1 3
10 11 10 10 8 11 16 16 18 14 10 6 4 7 8 8 9 10 12 11 9 6 6 6 5 4 4 4 3 1 1 0
10 11 8 12 11 9 13 16 18 17 12 7 5 6 7 6 8 9 14 12 10 8 6 5 5 4 4 4 2 3 2 1
11 10 9 8 11 9 13 13 14 14 9 9 5 4 4 4 7 8 12 11 12 9 5 5 5 4 4 3 4 2 3 3
9 10 9 5 7 7 9 14 14 12 11 12 8 8 6 4 4 6 9 10 10 9 6 5 5 5 6 6 4 5 2 1
14 10 8 8 7 8 9 13 16 14 12 11 8 7 4 4 5 7 10 12 12 10 8 6 8 5 6 5 6 4 3 3
16 14 10 7 9 9 11 15 17 14 14 10 7 8 3 5 7 9 10 13 12 11 10 8 7 7 8 6 5 7 4 2
14 14 9 7 9 7 11 15 17 16 15 14 17 15 11 13 12 9 10 12 11 10 10 10 10 6 7 5 4 4 6 5
9 9 6 7 4 8 8 13 16 17 19 18 16 16 15 10 9 12 13 12 12 11 10 10 8 5 6 7 6 6 4 4
7 7 7 5 3 6 7 14 16 16 18 19 19 18 16 11 10 10 8 7 8 10 9 9 7 7 7 6 6 7 6 5
8 9 8 8 7 2 7 9 16 18 18 20 19 17 16 16 15 11 12 10 10 10 11 10 8 8 8 8 8 8 6 7
6 7 9 9 6 8 7 9 13 17 20 22 20 16 11 10 12 11 11 12 11 14 12 12 13 12 10 9 8 8 9 8
7 7 7 8 11 6 8 9 13 16 20 20 18 16 14 12 12 12 10 11 10 13 15 14 14 14 11 11 8 9 10 8
9 9 11 5 7 10 11 9 14 16 20 19 17 18 16 13 12 13 13 12 15 14 16 16 16 14 12 12 10 11 11 7
8 9 11 10 9 10 13 9 10 13 16 18 18 16 16 15 15 15 14 14 16 16 17 17 18 17 13 13 11 11 12 10
9 11 11 11 12 13 13 11 7 15 15 17 18 15 16 16 15 16 15 16 15 17 17 17 17 16 16 16 12 12 11 10
Wind_Direction
90 186 206 226 239 255 212 189 165 160 163 166 164 166 165 168 173 178 185 179 179 167 169 180 181 192 192 205 238 251 237 216
188 197 232 201 209 196 230 228 183 173 159 165 164 168 177 174 184 184 182 182 180 182 183 185 184 193 194 204 208 248 265 265
213 224 216 213 202 189 197 209 219 191 173 167 171 169 176 177 183 185 175 178 188 185 194 191 187 186 197 213 213 218 255 295
156 193 243 232 205 196 180 191 211 220 209 180 175 171 171 176 178 182 177 174 185 193 193 199 199 195 197 209 205 228 252 303
262 171 208 217 208 199 186 188 192 203 218 211 180 176 179 174 173 175 178 173 189 191 194 195 201 200 198 203 230 242 279 286
246 257 188 225 212 188 201 195 191 180 183 198 197 191 188 184 177 171 178 180 190 193 191 206 186 180 173 188 206 262 2 116
266 246 205 206 221 226 195 189 186 179 163 160 182 207 200 184 181 186 183 184 193 194 197 211 170 176 187 191 172 140 149 147
287 293 249 196 223 231 185 180 174 169 149 148 157 174 222 208 202 194 187 190 191 197 192 201 171 166 199 169 132 91 123 167
272 277 269 194 217 198 174 164 165 155 159 165 166 192 197 228 217 204 191 197 196 195 207 176 172 175 185 160 116 142 105 89
286 272 255 226 186 205 169 177 170 172 171 173 164 171 220 199 208 195 198 198 198 191 195 182 175 165 151 150 156 130 90 20
275 272 255 191 196 192 180 181 181 180 178 163 129 143 137 212 207 197 204 200 199 195 182 168 167 172 169 166 160 130 131 32
255 270 280 242 220 201 186 184 184 180 179 173 175 166 184 206 208 186 191 191 198 190 176 163 174 166 151 152 143 130 125 139
255 264 259 278 184 199 194 193 191 190 181 185 184 187 189 194 203 204 204 170 182 185 171 158 160 138 131 137 131 130 113 136
297 292 314 317 77 225 220 182 195 195 197 192 191 194 198 192 185 182 190 168 164 180 155 150 131 125 131 122 109 111 111 99
322 329 322 327 328 236 235 215 197 192 197 200 202 203 201 194 183 178 172 170 174 166 145 140 129 121 115 115 107 100 98 97
281 295 308 314 307 303 202 233 216 199 196 205 202 200 207 198 191 177 185 178 171 161 149 137 130 121 116 110 100 97 98 94
307 311 295 302 310 302 291 217 230 208 203 203 208 197 198 194 186 180 180 164 156 152 138 135 125 117 116 113 107 104 94 96
322 316 309 276 276 294 290 255 233 211 202 202 206 199 188 176 169 181 175 165 150 149 137 136 121 116 115 113 109 105 101 91
300 302 302 306 291 282 277 268 224 219 204 201 200 196 184 172 177 174 172 161 152 148 143 136 127 123 117 104 102 108 99 98
311 311 309 306 295 285 272 265 219 227 203 194 192 178 182 175 176 164 156 149 148 141 140 137 126 120 119 118 118 103 107 106